Regional Weather Roundup
Issued by NWS

Home | Current Version | Previous Version | Graphics & Text | Print | Product List | Glossary Off
Versions: 1 2 3 4 5 6 7 8 9 10 11 12 13 14 15 16 17 18 19 20 21 22 23 24 25 26 27 28 29 30 31 32 33 34 35 36 37 38 39 40 41 42 43 44 45 46 47 48 49 50

000
ASUS43 KTOP 240559
RWRKS

WEATHER ROUNDUP FOR KANSAS
NATIONAL WEATHER SERVICE GOODLAND KS
100 AM CDT WED MAY 24 2017

NOTE:  "FAIR" INDICATES FEW OR NO CLOUDS BELOW 12,000 FEET WITH NO
SIGNIFICANT WEATHER AND/OR OBSTRUCTIONS TO VISIBILITY.

KSZ001>006-013>018-027>032-041>047-240700-
NORTHWEST KANSAS

CITY           SKY/WX    TMP DP  RH WIND       PRES   REMARKS
GOODLAND       CLEAR     38  35  89 W7        30.01F
6HR MIN TEMP:  38; 6HR MAX TEMP:  60;

HAYS           PTCLDY    43  40  89 NW7       29.95F
HILL CITY      CLEAR     44  39  82 N8        29.97S
6HR MIN TEMP:  44; 6HR MAX TEMP:  60;

RUSSELL        CLOUDY    49  43  80 NW9       29.91F
6HR MIN TEMP:  45; 6HR MAX TEMP:  60;

$$

KSZ061>065-074>080-084>089-240700-
SOUTHWEST KANSAS

CITY           SKY/WX    TMP DP  RH WIND       PRES   REMARKS
DODGE CITY     CLEAR     43  38  82 NW6       29.97F
6HR MIN TEMP:  43; 6HR MAX TEMP:  61;

ELKHART          N/A     47  32  56 W5          N/A
GARDEN CITY    CLEAR     39  34  82 W9        29.99F
6HR MIN TEMP:  39; 6HR MAX TEMP:  59;

GREAT BEND     PTCLDY    45  42  89 NW7       29.93F
LIBERAL        CLEAR     44  40  85 W8        30.00F
$$

KSZ066>073-081>083-090>101-240700-
SOUTHEAST KANSAS

CITY           SKY/WX    TMP DP  RH WIND       PRES   REMARKS
CHANUTE        PTCLDY    53  48  83 NW7       29.81F
6HR MIN TEMP:  53; 6HR MAX TEMP:  60;

COFFEYVILLE    PTCLDY    54  50  86 NW7       29.82F
6HR MIN TEMP:  54; 6HR MAX TEMP:  67;

HUTCHINSON     CLEAR     50  42  74 NW8       29.88F
6HR MIN TEMP:  50; 6HR MAX TEMP:  62;

MEDICINE LODGE   N/A     47  41  80 N3        29.92F
NEWTON         CLOUDY    52  45  77 NW12      29.87F
PARSONS        CLOUDY    53  49  86 W3        29.83F
6HR MIN TEMP:  52; 6HR MAX TEMP:  58; 6HR PCP:  0.01;

WICHITA INTL   PTCLDY    53  44  71 NW9       29.87F
6HR MIN TEMP:  53; 6HR MAX TEMP:  62;

WICHITA JABRA  MOCLDY    52  45  77 NW10      29.86F
6HR MIN TEMP:  52; 6HR MAX TEMP:  62; 6HR PCP: TRACE;

WINFIELD       PTCLDY    51  45  79 NW7       29.87F
6HR MIN TEMP:  50; 6HR MAX TEMP:  58;

$$

KSZ007>012-019>026-033>040-048>060-102>105-240700-
NORTHEAST KANSAS

CITY           SKY/WX    TMP DP  RH WIND       PRES   REMARKS
CONCORDIA      CLEAR     49  44  83 NW12      29.88F
6HR MIN TEMP:  49; 6HR MAX TEMP:  56;

EMPORIA        CLOUDY    52  45  77 NW7       29.83F
6HR MIN TEMP:  52; 6HR MAX TEMP:  57; 6HR PCP:  0.01;

LAWRENCE       CLOUDY    53  48  83 NW13      29.79F
6HR MIN TEMP:  53; 6HR MAX TEMP:  57;

MANHATTAN      CLEAR     51  45  79 VRB3      29.84F
6HR MIN TEMP:  51; 6HR MAX TEMP:  59;

OLATHE IND     CLEAR     50  47  89 NW9       29.79F
6HR MIN TEMP:  50; 6HR MAX TEMP:  53; 6HR PCP:  0.01;

OLATHE EXE     CLEAR     50  49  96 NW7       29.78F
6HR MIN TEMP:  50; 6HR MAX TEMP:  53; 6HR PCP:  0.04;

SALINA         PTCLDY    51  45  79 NW9       29.88F
6HR MIN TEMP:  51; 6HR MAX TEMP:  61;

TOPEKA BILLARD PTCLDY    51  48  89 NW6       29.81F
6HR MIN TEMP:  51; 6HR MAX TEMP:  60; 6HR PCP: TRACE;

TOPEKA FORBES  CLOUDY    52  48  86 NW9       29.80F
6HR MIN TEMP:  52; 6HR MAX TEMP:  61; 6HR PCP:  0.04;

$$




USA.gov is the U.S. government's official web portal to all federal, state and local government web resources and services.